Location: Cumbre Roja
(10.2766°N, 67.0675°W)
Time: 01:36:10
(UTC+00:00)

Ariane V96 H10-3 - Pass Details

Date: 18 November 2025
Orbit: 304 x 21973 km, 7.5° (Epoch: 08 December)

Event Time Altitude Azimuth Distance (km) Brightness Sun altitude
Rises 22:02:15 0° 256° (WSW) 2,054 8.7 -0.8°
Reaches altitude 10° 22:03:42 10° 244° (WSW) 1,399 7.0 -1.1°
Maximum altitude 22:06:11 34° 174° (S) 963 4.2 -1.7°
Drops below altitude 10° 22:12:37 10° 110° (ESE) 3,679 6.5 -3.2°
Sets 22:19:40 0° 103° (ESE) 6,808 7.8 -4.8°
